Theta_e
330 331 331 332 331 330 331 332 332 334 333 332 332 332 332 331 331 331 331 330 330 330 331 330 325 330 327 326 331 333 331 329 321 323 325 326 325 325 327 327 327 326 324
330 330 331 331 329 330 331 332 332 332 332 333 332 331 330 330 330 329 328 327 327 326 325 328 323 330 331 327 326 329 329 331 324 319 324 324 323 325 325 324 325 326 325
328 330 331 330 329 330 330 331 333 333 332 331 332 330 330 329 328 328 328 327 325 326 329 328 324 328 328 330 330 331 329 328 325 323 321 324 323 324 324 325 325 324 326
328 329 330 331 330 330 331 332 332 332 331 331 332 331 330 327 326 326 325 324 324 325 328 327 328 329 330 331 329 329 330 326 324 322 321 321 321 325 324 321 318 322 322
327 328 330 331 331 330 331 331 333 332 331 329 329 327 330 325 324 324 324 324 325 324 326 326 327 327 322 326 328 330 328 325 323 321 320 320 320 321 321 322 317 317 321
326 327 329 329 329 331 331 331 331 332 329 328 327 327 328 324 306 310 321 324 325 325 325 325 327 321 316 310 313 315 321 323 321 320 321 320 321 320 320 321 318 317 316
325 327 328 329 329 329 329 328 330 331 331 327 326 329 325 322 304 306 312 327 326 325 324 324 323 321 322 322 310 311 311 310 314 323 320 321 323 325 326 322 322 321 321
324 325 327 328 329 330 327 328 328 330 330 329 323 323 323 317 302 304 310 328 326 325 324 324 322 320 320 321 323 320 320 319 320 324 326 326 329 328 329 331 325 320 321
323 324 326 328 329 330 326 327 327 328 329 329 327 319 320 313 301 303 316 326 325 324 323 323 323 317 302 306 320 317 318 316 303 301 303 301 303 307 318 324 318 319 316
323 324 326 328 329 330 329 327 327 329 327 328 327 325 314 315 299 304 317 325 325 323 323 321 309 316 300 305 323 321 321 318 317 321 322 313 316 311 309 330 325 323 319
325 325 326 328 330 331 330 327 327 327 326 326 327 327 325 322 315 300 306 326 324 324 323 324 325 300 299 302 308 323 318 319 313 322 322 322 323 323 323 325 328 325 318
325 324 325 327 329 329 329 326 326 327 325 324 324 326 326 321 307 301 301 309 315 325 326 326 324 300 299 299 308 295 298 308 319 319 318 316 316 315 315 314 316 316 318
324 324 325 327 328 329 329 325 323 325 322 322 322 322 322 323 322 300 299 300 304 326 329 317 299 297 296 300 295 296 302 318 317 314 312 312 313 312 312 311 311 310 309
324 324 325 324 326 329 328 326 324 322 321 319 320 321 322 322 325 324 321 320 305 319 308 316 306 304 298 307 309 305 319 320 318 317 316 314 312 311 311 311 309 308 304
325 324 324 323 324 327 328 327 325 327 322 321 320 321 322 321 322 317 319 326 328 318 317 319 321 320 318 317 319 318 318 318 318 318 315 313 312 312 311 311 310 309 306
323 323 322 322 322 324 325 324 298 305 303 301 303 314 321 307 297 296 299 298 296 297 320 322 322 321 317 317 317 316 316 312 317 316 316 314 312 311 310 310 310 308 303
325 325 322 319 321 321 322 322 321 313 299 298 298 299 302 306 295 294 294 293 292 298 321 321 322 321 319 319 318 318 317 318 319 316 316 315 313 312 307 309 308 305 301
326 308 322 322 321 321 322 322 322 322 322 322 301 305 297 297 294 293 292 297 309 306 322 321 320 321 321 320 318 317 317 317 316 316 315 314 314 312 310 309 306 302 296
324 320 322 322 321 318 322 322 321 321 322 322 324 302 301 294 292 291 292 317 315 315 317 318 320 321 320 320 319 318 316 315 315 314 314 314 314 313 312 310 306 292 293
323 310 314 321 320 320 321 321 321 321 321 322 322 321 318 307 316 315 310 315 321 319 317 315 316 318 319 319 317 316 315 312 313 313 314 313 313 313 311 308 303 297 293
322 318 308 320 320 320 320 320 321 321 321 321 322 320 303 319 321 321 320 319 321 322 321 319 317 315 315 316 315 314 313 314 313 313 312 312 312 309 309 304 296 295 293
322 320 318 319 320 320 321 321 321 321 321 321 322 319 293 317 321 321 321 321 322 323 323 322 320 319 317 315 315 314 314 312 311 311 312 311 308 309 304 296 293 293 293
322 320 319 320 321 312 318 321 321 321 321 321 322 321 314 317 320 322 322 322 322 322 323 322 321 321 321 321 319 317 315 313 313 313 312 311 309 304 302 301 298 293 292
322 321 320 320 320 320 320 321 321 311 321 322 322 322 321 318 320 322 323 324 323 322 322 321 320 321 321 321 320 320 319 318 316 314 314 311 307 301 302 300 299 294 293
323 322 322 323 321 321 321 321 322 322 321 321 322 322 322 322 320 321 322 323 323 322 321 320 320 319 320 320 320 320 311 293 312 305 314 311 308 303 300 298 295 293 293
322 322 322 322 322 321 322 321 322 322 322 321 322 323 323 323 322 322 322 322 321 321 321 321 320 320 320 319 318 307 292 292 302 296 312 309 304 302 299 296 295 293 292
Wind_Speed
6 5 4 3 3 4 4 3 4 3 4 5 7 7 8 8 7 6 6 7 7 7 6 7 6 9 7 6 7 6 3 4 6 3 2 13 16 14 11 10 9 8 6
7 5 4 4 4 5 4 4 4 5 5 5 6 6 7 9 8 7 8 8 7 6 6 5 7 7 9 7 3 6 6 6 8 9 6 8 13 13 12 12 7 5 6
7 6 5 5 4 6 4 4 4 6 5 5 6 8 9 9 9 8 8 8 7 5 6 7 5 6 8 7 7 7 7 6 6 7 5 6 10 10 11 8 8 6 4
7 7 5 5 5 6 5 5 4 5 6 6 6 7 8 8 8 8 8 9 8 6 6 7 7 7 8 9 6 7 8 8 7 8 9 8 11 7 7 7 4 4 3
8 8 6 5 6 7 6 6 6 6 6 6 7 6 8 8 7 9 8 9 9 8 7 7 6 6 7 7 6 8 8 6 7 8 7 8 7 8 8 3 4 5 4
9 8 7 6 7 6 6 5 5 6 6 7 6 7 7 5 8 10 10 8 9 9 9 7 8 10 9 10 10 10 7 9 10 7 6 9 8 7 4 5 7 5 6
9 9 8 7 7 6 6 5 6 6 7 6 4 6 8 8 9 9 10 8 8 8 9 8 7 6 8 10 12 14 13 13 9 8 11 9 11 10 9 8 6 5 7
10 10 9 9 7 7 8 7 7 6 7 6 4 5 9 5 8 9 9 10 8 9 9 8 8 7 7 8 10 9 8 8 6 4 8 8 8 9 8 7 9 9 9
12 11 10 10 9 8 9 7 5 7 6 6 6 5 8 5 7 9 9 10 9 9 8 6 8 9 6 8 8 8 9 8 9 10 11 8 11 12 9 9 9 10 7
13 12 11 11 9 9 9 9 6 6 7 6 6 10 10 7 7 9 8 7 11 7 6 5 9 9 8 7 7 9 10 8 9 11 10 11 10 8 4 5 9 7 6
13 13 12 11 10 9 9 8 7 7 8 7 8 8 8 9 6 7 8 8 9 8 7 7 5 7 9 8 7 6 5 10 8 10 9 8 8 6 4 4 3 5 6
13 13 13 12 9 8 10 8 8 8 8 8 8 7 6 5 5 7 8 3 10 7 9 7 6 7 8 7 4 10 12 10 8 7 7 7 7 6 6 6 8 7 6
14 14 14 12 11 10 10 9 8 8 7 7 7 7 6 5 5 6 6 8 8 8 6 7 11 9 9 8 8 10 7 6 7 7 6 6 6 7 9 9 10 12 12
16 14 13 13 12 10 9 9 8 8 7 7 7 7 7 6 6 7 6 6 7 6 8 6 7 8 9 8 7 6 5 5 6 7 7 7 7 7 7 7 7 7 7
15 14 13 12 13 11 10 9 9 9 8 8 8 7 8 7 7 8 9 8 8 7 8 6 5 4 4 4 4 5 5 6 6 6 8 8 8 8 7 6 6 5 5
15 13 12 12 12 10 10 7 7 4 10 5 8 8 7 4 13 12 9 9 13 15 6 7 6 6 6 6 6 7 7 7 7 7 8 8 8 8 7 7 5 5 7
16 14 12 12 12 12 11 11 10 4 4 6 9 9 9 11 12 13 12 11 10 9 7 7 8 8 8 8 8 8 8 8 8 8 8 9 8 9 9 8 7 7 7
16 15 14 13 13 12 12 11 10 10 10 10 7 8 9 8 11 12 14 12 5 6 8 8 9 9 9 9 8 8 8 8 8 7 7 8 8 9 10 10 9 9 9
16 14 14 13 13 13 12 12 11 11 10 10 9 4 5 6 8 11 16 10 10 10 10 10 9 9 9 8 8 8 8 8 8 8 8 9 10 9 9 8 8 8 8
16 16 14 13 12 13 12 12 12 11 11 10 10 11 10 7 8 9 10 11 10 10 11 11 10 9 9 9 9 8 9 8 9 9 9 9 10 9 10 10 10 11 7
13 14 13 14 14 14 13 13 12 11 11 11 11 11 14 13 13 12 12 12 12 12 12 11 11 11 10 10 10 10 10 10 11 10 10 10 11 10 9 8 10 10 10
13 13 15 15 13 14 14 13 13 13 12 12 11 10 13 12 12 12 13 13 13 13 12 12 11 11 11 11 12 11 12 12 11 12 13 11 9 10 11 10 12 12 11
14 15 15 14 13 12 12 14 13 13 13 13 12 12 10 13 13 13 13 13 13 13 12 12 12 12 11 11 11 12 12 13 13 13 12 12 12 12 13 13 14 11 11
15 16 16 14 14 14 14 14 14 13 14 13 12 12 12 12 14 15 14 12 12 12 12 13 13 16 14 13 11 12 12 12 10 12 16 13 14 15 13 14 13 14 11
14 14 13 13 14 14 13 14 14 14 14 13 13 12 12 12 12 13 12 12 11 11 13 13 12 16 20 20 17 17 12 9 14 11 13 16 17 20 15 14 16 15 13
14 15 13 12 12 12 12 13 14 13 13 12 13 12 12 12 12 11 11 12 12 12 13 11 14 19 17 16 18 15 11 12 12 14 14 14 16 15 15 16 21 13 14
Wind_Direction
154 157 158 147 129 123 114 90 83 108 114 139 160 155 143 137 133 132 132 133 138 135 144 148 130 155 137 150 165 179 139 104 115 80 351 129 120 124 116 112 120 120 128
154 161 162 138 128 119 125 96 89 103 100 126 150 148 141 133 130 135 130 136 139 144 133 145 136 151 139 127 128 132 124 112 129 133 105 115 125 125 121 120 127 124 128
161 164 161 142 127 112 115 103 96 115 107 120 139 143 141 130 134 138 138 136 138 147 142 126 148 154 130 151 153 130 126 113 120 132 122 111 129 128 126 131 131 127 136
165 171 169 145 123 111 111 107 88 106 117 121 126 130 130 130 132 134 137 133 134 138 132 136 158 152 151 148 150 145 139 128 123 125 129 123 127 135 120 130 104 89 96
167 172 172 154 134 116 112 101 95 93 104 114 123 122 134 130 135 135 136 134 131 130 127 136 150 134 95 121 143 145 135 125 135 137 119 126 133 139 134 108 94 112 97
171 174 165 171 154 137 124 119 103 100 113 125 126 135 137 117 125 124 136 137 139 136 126 123 124 112 97 92 97 88 117 139 133 133 128 137 136 117 117 117 130 156 121
177 169 169 172 164 148 123 128 119 112 119 100 96 124 116 122 127 126 129 125 122 118 116 116 107 112 117 102 99 92 80 75 89 131 141 146 147 154 144 141 158 151 122
183 173 173 175 168 151 133 129 119 125 127 122 112 105 124 129 138 125 124 124 116 113 104 100 98 84 102 107 102 92 86 76 56 95 138 147 152 152 152 152 132 113 116
188 181 178 177 172 163 143 137 125 133 133 117 115 117 124 131 132 132 139 126 119 113 104 96 102 94 104 105 104 106 106 89 52 62 76 84 114 127 139 134 150 150 144
187 187 178 182 178 176 151 143 140 136 126 123 108 117 115 134 159 136 129 130 122 116 105 103 81 107 101 113 129 129 119 124 126 124 106 96 106 102 61 199 170 171 138
184 185 179 180 183 174 156 146 141 140 126 123 125 123 134 143 161 158 151 144 140 145 142 147 126 106 101 100 123 138 127 140 119 122 117 120 129 135 113 84 136 171 162
180 182 182 178 183 170 163 149 146 146 137 130 130 135 132 137 138 161 184 172 155 156 157 160 145 126 102 109 103 109 114 134 134 127 126 122 123 119 108 90 83 80 52
178 182 180 179 179 174 170 161 157 162 160 155 151 140 144 162 161 136 157 160 180 171 176 114 107 108 116 101 103 122 133 126 131 132 130 129 124 113 118 105 93 92 79
178 179 178 178 179 179 179 175 174 176 174 173 169 156 147 152 156 157 157 158 137 134 131 105 94 90 73 96 126 166 184 171 166 158 143 128 133 143 134 140 132 129 114
179 175 176 181 183 181 191 188 190 191 188 179 179 173 167 170 168 160 164 168 172 145 131 143 157 169 163 158 154 162 164 163 168 154 152 155 158 161 155 158 155 167 149
177 176 179 179 182 185 187 186 42 355 187 189 169 181 184 94 143 160 159 132 128 151 167 177 185 186 190 183 178 173 181 185 175 172 168 169 170 174 162 165 168 158 146
178 176 175 180 182 184 187 192 196 174 178 202 185 196 201 169 169 167 151 140 155 162 199 194 196 196 200 199 198 194 191 190 178 186 180 178 176 176 167 173 174 164 152
180 171 175 184 186 187 189 193 197 193 198 203 207 213 204 176 177 159 141 137 154 223 225 213 209 206 209 207 206 205 201 183 195 192 191 186 186 181 186 180 179 165 147
178 181 186 184 186 189 190 196 200 200 200 197 183 188 166 114 128 147 170 201 206 210 215 221 222 218 219 217 216 210 206 200 193 192 195 194 193 191 193 188 166 157 141
183 177 181 181 180 185 192 199 201 206 205 204 197 200 165 159 191 185 197 216 218 218 215 220 219 222 220 218 214 211 204 195 195 199 200 199 196 201 187 178 169 160 149
182 176 185 184 186 188 191 199 201 203 207 210 212 205 175 193 204 207 200 208 217 219 221 220 219 217 218 214 212 209 211 207 207 206 204 202 194 192 199 154 146 147 135
184 179 186 193 191 192 193 195 198 202 205 208 212 203 170 210 212 215 215 214 215 219 220 218 219 218 213 213 211 210 210 210 204 199 200 194 185 190 156 149 150 149 140
184 184 189 193 194 194 189 195 200 205 208 209 209 202 183 209 218 217 219 219 217 217 217 218 222 222 219 219 218 218 219 214 205 202 200 190 178 167 165 163 162 151 145
183 186 192 192 191 195 200 200 202 206 210 212 212 211 201 205 211 219 219 217 217 219 218 218 221 222 221 219 217 218 222 222 211 203 192 187 178 171 167 163 158 150 142
188 189 186 192 195 198 201 205 205 207 208 214 216 215 214 209 211 215 217 219 220 219 219 219 221 224 224 221 221 219 214 177 202 187 185 179 178 171 162 156 154 153 149
194 190 191 187 197 201 203 201 204 208 213 212 219 220 222 221 215 212 211 213 215 216 219 219 225 226 224 223 222 218 174 171 168 170 176 171 167 166 159 156 153 149 148